NK7E Weather Reports


Display with metric or nautical units.
time (UTC)temp
F
wind
direction
speed
MPH
gust
MPH
rain 1hr
in
rain 24hr
in
rain mn
in
humidity
%
barometer
mb
20260902171017 87 248 1.0 4.0 0.00 0.00 0.00 50 1018.3
20260902170017 88 270 1.0 4.0 0.00 0.00 0.00 51 1018.3
20260902165017 87 225 2.0 6.0 0.00 0.00 0.00 51 1018.2
20260902164017 87 158 2.0 5.0 0.00 0.00 0.00 53 1018.3
20260902163017 86 135 3.0 6.0 0.00 0.00 0.00 53 1018.3
20260902162017 85 113 2.0 6.0 0.00 0.00 0.00 55 1018.3
20260902161017 85 158 2.0 7.0 0.00 0.00 0.00 55 1018.3
20260902160017 85 90 2.0 6.0 0.00 0.00 0.00 55 1018.3
20260902155017 84 68 3.0 5.0 0.00 0.00 0.00 56 1018.2
20260902154017 84 68 4.0 7.0 0.00 0.00 0.00 57 1018.2
20260902153017 84 113 3.0 7.0 0.00 0.00 0.00 58 1018.2
20260902152017 83 90 3.0 8.0 0.00 0.00 0.00 58 1018.2
20260902151017 82 90 3.0 7.0 0.00 0.00 0.00 59 1018.2
20260902150017 82 90 3.0 6.0 0.00 0.00 0.00 59 1018.2
20260902145022 81 113 3.0 8.0 0.00 0.00 0.00 60 1018.2
20260902144017 81 90 1.0 3.0 0.00 0.00 0.00 61 1018.2
20260902143017 80 90 2.0 5.0 0.00 0.00 0.00 62 1018.1
20260902142017 80 90 2.0 5.0 0.00 0.00 0.00 64 1018.1
20260902141017 79 90 2.0 4.0 0.00 0.00 0.00 65 1017.8
20260902140017 78 68 1.0 3.0 0.00 0.00 0.00 66 1017.8
20260902135017 77 23 1.0 2.0 0.00 0.00 0.00 67 1017.7
20260902134017 76 0.0 2.0 0.00 0.00 0.00 67 1017.6
20260902133017 76 113 1.0 2.0 0.00 0.00 0.00 68 1017.5
20260902132017 76 45 1.0 2.0 0.00 0.00 0.00 68 1017.4
20260902131017 75 68 1.0 3.0 0.00 0.00 0.00 68 1017.2
20260902130017 75 68 2.0 3.0 0.00 0.00 0.00 68 1017.2
20260902125017 76 68 2.0 3.0 0.00 0.00 0.00 68 1017.3
20260902124017 76 68 2.0 4.0 0.00 0.00 0.00 68 1017.2
20260902123017 76 68 2.0 4.0 0.00 0.00 0.00 69 1017.1
20260902122017 76 90 1.0 3.0 0.00 0.00 0.00 68 1017.0
20260902121017 76 68 2.0 3.0 0.00 0.00 0.00 67 1017.0
20260902120017 76 68 2.0 5.0 0.00 0.00 0.00 66 1016.9
20260902115017 76 68 4.0 7.0 0.00 0.00 0.00 66 1016.9
20260902114017 76 68 4.0 8.0 0.00 0.00 0.00 66 1016.9
20260902113017 76 68 3.0 5.0 0.00 0.00 0.00 66 1016.9
20260902112017 76 68 3.0 5.0 0.00 0.00 0.00 66 1016.9
20260902111017 76 90 3.0 6.0 0.00 0.00 0.00 67 1016.9
20260902110017 76 68 3.0 6.0 0.00 0.00 0.00 67 1016.9
20260902105017 77 90 2.0 4.0 0.00 0.00 0.00 67 1016.9
20260902104017 78 225 1.0 2.0 0.00 0.00 0.00 65 1017.0
20260902103017 79 0.0 1.0 0.00 0.00 0.00 63 1017.0
20260902102016 79 0 1.0 3.0 0.00 0.00 0.00 62 1017.0
20260902101017 79 0 1.0 4.0 0.00 0.00 0.00 63 1016.9
20260902100017 78 0 2.0 4.0 0.00 0.00 0.00 64 1016.9
20260902095017 78 0 2.0 5.0 0.00 0.00 0.00 64 1016.8
20260902094017 78 0 3.0 5.0 0.00 0.00 0.00 66 1016.9
20260902093016 77 0 2.0 4.0 0.00 0.00 0.00 67 1017.0
20260902092017 77 0 2.0 3.0 0.00 0.00 0.00 67 1017.1
20260902091017 77 0 1.0 2.0 0.00 0.00 0.00 66 1017.0
20260902090017 78 0 1.0 3.0 0.00 0.00 0.00 65 1017.0
20260902085017 78 0.0 0.0 0.00 0.00 0.00 63 1016.9
20260902084016 79 0.0 1.0 0.00 0.00 0.00 63 1016.9
20260902083016 79 0 1.0 2.0 0.00 0.00 0.00 62 1016.8
20260902082016 79 0 1.0 2.0 0.00 0.00 0.00 62 1016.8
20260902081017 78 0 2.0 4.0 0.00 0.00 0.00 62 1016.8
20260902080017 78 68 2.0 3.0 0.00 0.00 0.00 62 1016.7
20260902075017 79 45 1.0 2.0 0.00 0.00 0.00 61 1016.6
20260902074017 79 90 1.0 2.0 0.00 0.00 0.00 60 1016.7
20260902073016 79 90 1.0 3.0 0.00 0.00 0.00 60 1016.8
20260902072016 79 90 2.0 4.0 0.00 0.00 0.00 59 1016.8
20260902071016 80 113 2.0 4.0 0.00 0.00 0.00 59 1016.7
20260902070017 79 113 2.0 4.0 0.00 0.00 0.00 59 1016.8
20260902065017 80 45 1.0 2.0 0.00 0.00 0.00 58 1016.6
20260902064017 80 68 1.0 3.0 0.00 0.00 0.00 55 1016.6
20260902063017 81 0 2.0 3.0 0.00 0.00 0.00 53 1016.5
20260902062017 81 0 1.0 3.0 0.00 0.00 0.00 53 1016.5
20260902061017 81 0 2.0 4.0 0.00 0.00 0.00 54 1016.5
20260902060017 81 0 1.0 3.0 0.00 0.00 0.00 54 1016.5
20260902055017 81 0 1.0 3.0 0.00 0.00 0.00 54 1016.6
20260902054017 82 45 2.0 3.0 0.00 0.00 0.00 54 1016.5
20260902053017 81 45 3.0 4.0 0.00 0.00 0.00 55 1016.6
20260902052017 81 45 2.0 4.0 0.00 0.00 0.00 55 1016.7
20260902051017 81 23 1.0 3.0 0.00 0.00 0.00 56 1016.8
20260902050017 82 0 2.0 3.0 0.00 0.00 0.00 56 1016.8
20260902045017 82 23 2.0 3.0 0.00 0.00 0.00 53 1016.7
20260902044017 84 338 1.0 3.0 0.00 0.00 0.00 52 1016.7
20260902043017 84 338 1.0 4.0 0.00 0.00 0.00 51 1016.7
20260902042017 84 293 3.0 6.0 0.00 0.00 0.00 50 1016.5
20260902041017 85 293 1.0 2.0 0.00 0.00 0.00 50 1016.4
20260902040017 85 293 2.0 8.0 0.00 0.00 0.00 49 1016.4
20260902035017 85 270 5.0 9.0 0.00 0.00 0.00 48 1016.2
20260902034017 85 270 5.0 9.0 0.00 0.00 0.00 48 1016.0
20260902033017 85 270 5.0 10.0 0.00 0.00 0.00 48 1015.8
20260902032017 85 270 5.0 10.0 0.00 0.00 0.00 48 1015.4
20260902031017 85 270 4.0 9.0 0.00 0.00 0.00 47 1015.4
20260902030017 85 270 3.0 6.0 0.00 0.00 0.00 46 1015.0
20260902025017 86 270 3.0 7.0 0.00 0.00 0.00 46 1014.9
20260902024017 86 270 5.0 9.0 0.00 0.00 0.00 45 1014.8
20260902023017 86 270 5.0 10.0 0.00 0.00 0.00 45 1014.6
20260902022017 86 293 4.0 8.0 0.00 0.00 0.00 45 1014.4
20260902021017 86 270 5.0 10.0 0.00 0.00 0.00 45 1014.3
20260902020017 86 270 6.0 10.0 0.00 0.00 0.00 45 1014.3
20260902015017 87 293 5.0 10.0 0.00 0.00 0.00 45 1014.2
20260902014017 87 0 6.0 11.0 0.00 0.00 0.00 44 1014.3
20260902013017 88 270 8.0 13.0 0.00 0.00 0.00 43 1014.2
20260902012017 88 270 7.0 12.0 0.00 0.00 0.00 44 1014.2
20260902011017 88 270 6.0 12.0 0.00 0.00 0.00 44 1014.1
20260902010017 88 270 8.0 13.0 0.00 0.00 0.00 44 1014.1
20260902005016 89 270 8.0 14.0 0.00 0.00 0.00 44 1014.1
20260902004017 89 270 8.0 14.0 0.00 0.00 0.00 44 1014.1
20260902003017 90 270 8.0 15.0 0.00 0.00 0.00 44 1014.2
20260902002017 90 270 8.0 14.0 0.00 0.00 0.00 44 1014.2
20260902001017 90 270 7.0 12.0 0.00 0.00 0.00 44 1014.3
20260902000016 90 270 8.0 14.0 0.00 0.00 0.00 44 1014.4
20260901235017 90 270 6.0 12.0 0.00 0.00 0.00 44 1014.4
20260901234017 91 270 6.0 14.0 0.00 0.00 0.00 43 1014.6
20260901233017 91 270 6.0 11.0 0.00 0.00 0.00 43 1014.7
20260901232016 91 225 5.0 9.0 0.00 0.00 0.00 42 1014.7
20260901231017 91 270 7.0 12.0 0.00 0.00 0.00 43 1014.8
20260901230017 92 270 6.0 12.0 0.00 0.00 0.00 42 1014.8
20260901225017 92 270 6.0 11.0 0.00 0.00 0.00 42 1014.9
20260901224016 93 248 4.0 10.0 0.00 0.00 0.00 41 1014.9
20260901223016 92 248 5.0 12.0 0.00 0.00 0.00 42 1015.1
20260901222017 92 248 6.0 11.0 0.00 0.00 0.00 40 1015.2
20260901221017 92 248 4.0 10.0 0.00 0.00 0.00 41 1015.3
20260901220017 92 225 4.0 9.0 0.00 0.00 0.00 40 1015.4
20260901215017 92 225 3.0 8.0 0.00 0.00 0.00 41 1015.5
20260901214016 91 248 4.0 9.0 0.00 0.00 0.00 40 1015.6
20260901213016 92 248 4.0 8.0 0.00 0.00 0.00 40 1015.8
20260901212017 91 270 4.0 9.0 0.00 0.00 0.00 41 1016.1
20260901211017 91 270 7.0 12.0 0.00 0.00 0.00 40 1016.1
20260901210017 92 203 4.0 8.0 0.00 0.00 0.00 41 1016.3
20260901205017 91 248 2.0 6.0 0.00 0.00 0.00 41 1016.5
20260901204016 91 180 3.0 7.0 0.00 0.00 0.00 42 1016.8
20260901203017 91 248 3.0 7.0 0.00 0.00 0.00 43 1016.8
20260901202016 90 225 3.0 8.0 0.00 0.00 0.00 43 1016.9
20260901201016 91 248 3.0 8.0 0.00 0.00 0.00 42 1016.9
20260901200017 90 225 3.0 5.0 0.00 0.00 0.00 43 1017.1
20260901195016 89 23 1.0 4.0 0.00 0.00 0.00 44 1017.2
20260901194017 89 270 2.0 5.0 0.00 0.00 0.00 43 1017.3
20260901193016 90 225 3.0 7.0 0.00 0.00 0.00 43 1017.4
20260901192017 90 203 3.0 8.0 0.00 0.00 0.00 43 1017.4
20260901191016 88 90 1.0 4.0 0.00 0.00 0.00 46 1017.6
20260901190016 88 203 3.0 7.0 0.00 0.00 0.00 44 1017.8
20260901185016 87 135 3.0 8.0 0.00 0.00 0.00 46 1017.7
20260901184016 88 203 4.0 9.0 0.00 0.00 0.00 45 1018.0
20260901183016 87 315 1.0 5.0 0.00 0.00 0.00 47 1017.9
20260901182016 87 203 2.0 4.0 0.00 0.00 0.00 46 1017.9
20260901181017 87 225 2.0 4.0 0.00 0.00 0.00 45 1018.1
20260901180016 87 113 2.0 6.0 0.00 0.00 0.00 45 1018.1
20260901175016 86 203 3.0 7.0 0.00 0.00 0.00 46 1018.1
20260901174018 85 180 3.0 6.0 0.00 0.00 0.00 47 1018.1
20260901173016 85 180 2.0 6.0 0.00 0.00 0.00 48 1018.1
20260901172016 85 158 2.0 6.0 0.00 0.00 0.00 47 1018.2